Time,TemperatureF,DewpointF,PressureIn,WindDirection,WindDirectionDegrees,WindSpeedMPH,WindSpeedGustMPH,Humidity,HourlyPrecipIn,Conditions,Clouds,dailyrainin,SoftwareType,DateUTC
2013-12-03 00:02:00,34.2,32.0,29.69,West,270,2.5,5.4,92,0.00,,,0.00,WUHU21623XXSP,2013-12-03 06:02:00,
2013-12-03 00:07:00,34.2,32.0,29.69,ESE,112,0.0,5.4,92,0.00,,,0.00,WUHU21623XXSP,2013-12-03 06:07:00,
2013-12-03 00:12:00,34.2,32.0,29.68,ESE,112,3.6,5.6,92,0.00,,,0.00,WUHU21623XXSP,2013-12-03 06:12:00,
2013-12-03 00:17:00,34.3,32.4,29.68,South,180,0.9,5.6,93,0.00,,,0.00,WUHU21623XXSP,2013-12-03 06:17:00,
2013-12-03 00:22:00,34.3,32.4,29.68,NE,45,1.8,4.7,93,0.00,,,0.00,WUHU21623XXSP,2013-12-03 06:22:00,
2013-12-03 00:27:00,34.3,32.4,29.68,ESE,112,7.4,9.2,93,0.00,,,0.00,WUHU21623XXSP,2013-12-03 06:27:00,
2013-12-03 00:32:00,34.3,32.4,29.68,NE,45,0.0,9.2,93,0.00,,,0.00,WUHU21623XXSP,2013-12-03 06:32:00,
2013-12-03 00:37:00,34.3,32.4,29.68,West,270,0.0,7.2,93,0.00,,,0.00,WUHU21623XXSP,2013-12-03 06:37:00,
2013-12-03 00:42:00,34.3,32.4,29.68,ESE,112,2.0,6.5,93,0.00,,,0.00,WUHU21623XXSP,2013-12-03 06:42:00,
2013-12-03 00:47:00,34.3,32.6,29.68,ESE,112,4.5,9.8,94,0.00,,,0.00,WUHU21623XXSP,2013-12-03 06:47:00,
2013-12-03 00:52:00,34.3,32.6,29.67,SSW,202,2.9,9.8,94,0.00,,,0.00,WUHU21623XXSP,2013-12-03 06:52:00,
2013-12-03 00:57:00,34.3,32.6,29.67,ENE,67,4.5,7.4,94,0.02,,,0.02,WUHU21623XXSP,2013-12-03 06:57:00,
2013-12-03 01:02:00,34.3,32.6,29.67,ENE,67,1.1,6.3,94,0.02,,,0.02,WUHU21623XXSP,2013-12-03 07:02:00,
2013-12-03 01:07:00,34.3,32.6,29.67,ESE,112,0.0,6.3,94,0.02,,,0.02,WUHU21623XXSP,2013-12-03 07:07:00,
2013-12-03 01:12:00,34.3,32.6,29.67,South,180,1.8,7.6,94,0.02,,,0.02,WUHU21623XXSP,2013-12-03 07:12:00,
2013-12-03 01:17:00,34.3,32.6,29.67,ESE,112,6.0,7.6,94,0.02,,,0.02,WUHU21623XXSP,2013-12-03 07:17:00,
2013-12-03 01:22:00,34.3,32.6,29.67,SSE,157,4.3,6.0,94,0.02,,,0.02,WUHU21623XXSP,2013-12-03 07:22:00,
2013-12-03 01:27:00,34.3,32.6,29.67,NE,45,4.9,8.3,94,0.02,,,0.02,WUHU21623XXSP,2013-12-03 07:27:00,
2013-12-03 01:32:00,34.3,32.6,29.67,ENE,67,3.6,8.3,94,0.02,,,0.02,WUHU21623XXSP,2013-12-03 07:32:00,
2013-12-03 01:37:00,34.3,32.6,29.67,NW,315,1.1,10.5,94,0.02,,,0.02,WUHU21623XXSP,2013-12-03 07:37:00,
2013-12-03 01:42:00,34.3,32.6,29.67,NE,45,2.2,10.5,94,0.02,,,0.02,WUHU21623XXSP,2013-12-03 07:42:00,
2013-12-03 01:47:00,34.3,32.6,29.67,North,0,6.3,6.3,94,0.04,,,0.04,WUHU21623XXSP,2013-12-03 07:47:00,
2013-12-03 01:52:00,34.3,32.6,29.67,NE,45,4.0,11.4,94,0.02,,,0.04,WUHU21623XXSP,2013-12-03 07:52:00,
2013-12-03 01:57:00,34.3,32.6,29.67,SE,135,4.0,11.4,94,0.02,,,0.04,WUHU21623XXSP,2013-12-03 07:57:00,
2013-12-03 02:02:00,34.3,32.6,29.67,ESE,112,6.7,8.5,94,0.02,,,0.04,WUHU21623XXSP,2013-12-03 08:02:00,
2013-12-03 02:07:00,34.3,32.6,29.67,South,180,3.8,8.5,94,0.02,,,0.04,WUHU21623XXSP,2013-12-03 08:07:00,
2013-12-03 02:12:00,34.3,32.6,29.67,NNW,337,2.9,7.4,94,0.02,,,0.04,WUHU21623XXSP,2013-12-03 08:12:00,
2013-12-03 02:17:00,34.3,32.6,29.67,SSW,202,3.1,7.4,94,0.02,,,0.04,WUHU21623XXSP,2013-12-03 08:17:00,
2013-12-03 02:22:00,34.3,32.6,29.67,East,90,0.0,6.3,94,0.02,,,0.04,WUHU21623XXSP,2013-12-03 08:22:00,
2013-12-03 02:27:00,34.5,33.1,29.68,WSW,247,0.7,5.1,95,0.02,,,0.04,WUHU21623XXSP,2013-12-03 08:27:00,
2013-12-03 02:32:00,34.5,33.1,29.67,NE,45,0.0,5.6,95,0.02,,,0.04,WUHU21623XXSP,2013-12-03 08:32:00,
2013-12-03 02:37:00,34.5,33.1,29.68,ESE,112,2.2,6.3,95,0.02,,,0.04,WUHU21623XXSP,2013-12-03 08:37:00,
2013-12-03 02:42:00,34.7,33.3,29.68,SE,135,4.9,6.3,95,0.02,,,0.04,WUHU21623XXSP,2013-12-03 08:42:00,
2013-12-03 02:47:00,34.7,33.3,29.68,South,180,0.0,6.7,95,0.02,,,0.06,WUHU21623XXSP,2013-12-03 08:47:00,
2013-12-03 02:52:00,34.7,33.3,29.67,North,0,0.0,6.7,95,0.02,,,0.06,WUHU21623XXSP,2013-12-03 08:52:00,
2013-12-03 02:57:00,34.7,33.3,29.66,NE,45,2.9,6.9,95,0.02,,,0.06,WUHU21623XXSP,2013-12-03 08:57:00,
2013-12-03 03:02:00,34.5,33.1,29.67,South,180,4.5,6.9,95,0.02,,,0.06,WUHU21623XXSP,2013-12-03 09:02:00,
2013-12-03 03:07:00,34.5,33.1,29.67,SE,135,0.0,4.7,95,0.02,,,0.06,WUHU21623XXSP,2013-12-03 09:07:00,
2013-12-03 03:12:00,34.5,33.1,29.67,SE,135,3.8,3.8,95,0.02,,,0.06,WUHU21623XXSP,2013-12-03 09:12:00,
2013-12-03 03:17:00,34.7,33.3,29.66,NNW,337,1.3,10.7,95,0.02,,,0.06,WUHU21623XXSP,2013-12-03 09:17:00,
2013-12-03 03:22:00,34.5,33.1,29.65,South,180,3.4,10.7,95,0.02,,,0.06,WUHU21623XXSP,2013-12-03 09:22:00,
2013-12-03 03:27:00,34.5,33.1,29.65,East,90,0.0,6.3,95,0.02,,,0.06,WUHU21623XXSP,2013-12-03 09:27:00,
2013-12-03 03:32:00,34.5,33.1,29.66,NNE,22,0.0,6.3,95,0.02,,,0.06,WUHU21623XXSP,2013-12-03 09:32:00,
2013-12-03 03:37:00,34.5,33.1,29.65,WSW,247,0.0,14.3,95,0.02,,,0.06,WUHU21623XXSP,2013-12-03 09:37:00,
2013-12-03 03:42:00,34.7,33.3,29.67,ESE,112,0.0,14.3,95,0.04,,,0.08,WUHU21623XXSP,2013-12-03 09:42:00,
2013-12-03 03:47:00,34.7,33.3,29.66,NNW,337,2.9,8.1,95,0.02,,,0.08,WUHU21623XXSP,2013-12-03 09:47:00,
2013-12-03 03:52:00,34.9,33.5,29.66,South,180,3.8,7.4,95,0.02,,,0.08,WUHU21623XXSP,2013-12-03 09:52:00,
2013-12-03 03:57:00,34.9,33.5,29.67,West,270,1.6,7.4,95,0.02,,,0.08,WUHU21623XXSP,2013-12-03 09:57:00,
2013-12-03 04:02:00,34.9,33.5,29.66,SSW,202,6.0,7.4,95,0.02,,,0.08,WUHU21623XXSP,2013-12-03 10:02:00,
2013-12-03 04:07:00,34.9,33.5,29.66,NE,45,2.9,8.3,95,0.02,,,0.08,WUHU21623XXSP,2013-12-03 10:07:00,
2013-12-03 04:12:00,34.9,33.5,29.65,ESE,112,2.2,8.3,95,0.02,,,0.08,WUHU21623XXSP,2013-12-03 10:12:00,
2013-12-03 04:17:00,34.9,33.5,29.66,SSE,157,1.1,8.3,95,0.02,,,0.08,WUHU21623XXSP,2013-12-03 10:17:00,
2013-12-03 04:22:00,34.9,33.5,29.66,ENE,67,0.0,6.3,95,0.02,,,0.08,WUHU21623XXSP,2013-12-03 10:22:00,
2013-12-03 04:27:00,34.7,33.3,29.66,NNE,22,2.9,6.3,95,0.02,,,0.08,WUHU21623XXSP,2013-12-03 10:27:00,
2013-12-03 04:32:00,34.7,33.3,29.66,SSE,157,1.3,3.6,95,0.02,,,0.08,WUHU21623XXSP,2013-12-03 10:32:00,
2013-12-03 04:37:00,34.9,33.5,29.65,South,180,7.2,7.2,95,0.00,,,0.08,WUHU21623XXSP,2013-12-03 10:37:00,
2013-12-03 04:42:00,34.9,33.5,29.65,SW,225,0.0,8.3,95,0.00,,,0.08,WUHU21623XXSP,2013-12-03 10:42:00,
2013-12-03 04:47:00,34.9,33.5,29.65,SE,135,2.5,8.3,95,0.00,,,0.08,WUHU21623XXSP,2013-12-03 10:47:00,
2013-12-03 04:52:00,34.9,33.5,29.65,WSW,247,0.0,6.3,95,0.00,,,0.08,WUHU21623XXSP,2013-12-03 10:52:00,
2013-12-03 04:57:00,34.9,33.5,29.66,SE,135,1.3,8.5,95,0.00,,,0.08,WUHU21623XXSP,2013-12-03 10:57:00,
2013-12-03 05:02:00,34.9,33.5,29.66,East,90,0.0,8.5,95,0.00,,,0.08,WUHU21623XXSP,2013-12-03 11:02:00,
2013-12-03 05:07:00,34.9,33.5,29.65,South,180,0.0,3.6,95,0.00,,,0.08,WUHU21623XXSP,2013-12-03 11:07:00,
2013-12-03 05:12:00,34.9,33.8,29.66,SW,225,3.6,8.3,96,0.00,,,0.08,WUHU21623XXSP,2013-12-03 11:12:00,
2013-12-03 05:17:00,35.2,34.1,29.66,SW,225,2.5,8.3,96,0.00,,,0.08,WUHU21623XXSP,2013-12-03 11:17:00,
2013-12-03 05:22:00,35.2,34.1,29.67,ESE,112,0.0,8.1,96,0.00,,,0.08,WUHU21623XXSP,2013-12-03 11:22:00,
2013-12-03 05:27:00,35.2,34.1,29.67,ESE,112,1.3,8.1,96,0.00,,,0.08,WUHU21623XXSP,2013-12-03 11:27:00,
2013-12-03 05:32:00,35.2,34.1,29.66,North,0,2.0,8.1,96,0.00,,,0.08,WUHU21623XXSP,2013-12-03 11:32:00,
2013-12-03 05:37:00,35.2,34.1,29.67,SE,135,3.6,4.5,96,0.00,,,0.08,WUHU21623XXSP,2013-12-03 11:37:00,
2013-12-03 05:42:00,35.2,34.1,29.66,ENE,67,0.0,3.8,96,0.00,,,0.08,WUHU21623XXSP,2013-12-03 11:42:00,
2013-12-03 05:47:00,35.2,34.1,29.67,NNW,337,0.0,5.6,96,0.00,,,0.08,WUHU21623XXSP,2013-12-03 11:47:00,
2013-12-03 05:52:00,35.2,34.1,29.68,East,90,1.1,5.6,96,0.00,,,0.08,WUHU21623XXSP,2013-12-03 11:52:00,
2013-12-03 05:57:00,35.2,34.1,29.67,East,90,4.0,4.7,96,0.00,,,0.08,WUHU21623XXSP,2013-12-03 11:57:00,
2013-12-03 06:02:00,35.4,34.3,29.67,East,90,1.3,4.0,96,0.00,,,0.08,WUHU21623XXSP,2013-12-03 12:02:00,
2013-12-03 06:07:00,35.4,34.3,29.67,SE,135,0.0,3.8,96,0.00,,,0.08,WUHU21623XXSP,2013-12-03 12:07:00,
2013-12-03 06:12:00,35.4,34.3,29.66,East,90,0.0,5.1,96,0.00,,,0.08,WUHU21623XXSP,2013-12-03 12:12:00,
2013-12-03 06:17:00,35.4,34.3,29.66,NNE,22,0.0,5.1,96,0.00,,,0.08,WUHU21623XXSP,2013-12-03 12:17:00,
2013-12-03 06:22:00,35.4,34.3,29.66,SSE,157,2.2,3.8,96,0.00,,,0.08,WUHU21623XXSP,2013-12-03 12:22:00,
2013-12-03 06:27:00,35.4,34.3,29.66,East,90,3.8,8.3,96,0.00,,,0.08,WUHU21623XXSP,2013-12-03 12:27:00,
2013-12-03 06:32:00,35.4,34.3,29.65,SSE,157,0.0,8.3,96,0.00,,,0.08,WUHU21623XXSP,2013-12-03 12:32:00,
2013-12-03 06:37:00,35.4,34.3,29.65,East,90,5.4,5.4,96,0.00,,,0.08,WUHU21623XXSP,2013-12-03 12:37:00,
2013-12-03 06:42:00,35.4,34.3,29.65,SSE,157,2.0,5.4,96,0.00,,,0.08,WUHU21623XXSP,2013-12-03 12:42:00,
2013-12-03 06:47:00,35.6,34.5,29.65,SE,135,0.0,5.6,96,0.00,,,0.08,WUHU21623XXSP,2013-12-03 12:47:00,
2013-12-03 06:52:00,35.6,34.5,29.65,NE,45,4.9,5.6,96,0.00,,,0.08,WUHU21623XXSP,2013-12-03 12:52:00,
2013-12-03 06:57:00,35.8,34.7,29.65,ESE,112,0.0,4.9,96,0.00,,,0.08,WUHU21623XXSP,2013-12-03 12:57:00,
2013-12-03 07:02:00,35.8,34.7,29.65,SE,135,2.9,6.0,96,0.00,,,0.08,WUHU21623XXSP,2013-12-03 13:02:00,
2013-12-03 07:07:00,35.8,34.7,29.65,NNE,22,0.0,6.0,96,0.00,,,0.08,WUHU21623XXSP,2013-12-03 13:07:00,
2013-12-03 07:12:00,35.8,34.7,29.65,ENE,67,1.1,5.6,96,0.00,,,0.08,WUHU21623XXSP,2013-12-03 13:12:00,
2013-12-03 07:17:00,35.8,34.7,29.65,ENE,67,0.0,4.5,96,0.00,,,0.08,WUHU21623XXSP,2013-12-03 13:17:00,
2013-12-03 07:22:00,36.0,34.9,29.66,East,90,1.3,4.5,96,0.00,,,0.08,WUHU21623XXSP,2013-12-03 13:22:00,
2013-12-03 07:27:00,36.0,34.9,29.65,East,90,0.9,4.5,96,0.00,,,0.08,WUHU21623XXSP,2013-12-03 13:27:00,
2013-12-03 07:32:00,36.0,34.9,29.66,SSW,202,2.2,5.1,96,0.00,,,0.08,WUHU21623XXSP,2013-12-03 13:32:00,
2013-12-03 07:37:00,36.0,34.9,29.65,ENE,67,1.1,5.1,96,0.00,,,0.08,WUHU21623XXSP,2013-12-03 13:37:00,
2013-12-03 07:42:00,36.1,35.0,29.66,NE,45,0.0,6.0,96,0.00,,,0.08,WUHU21623XXSP,2013-12-03 13:42:00,
2013-12-03 07:47:00,36.1,35.0,29.66,SE,135,0.0,6.0,96,0.00,,,0.08,WUHU21623XXSP,2013-12-03 13:47:00,
2013-12-03 07:52:00,36.1,35.0,29.67,East,90,0.0,5.6,96,0.00,,,0.08,WUHU21623XXSP,2013-12-03 13:52:00,
2013-12-03 07:57:00,36.3,35.2,29.66,East,90,0.0,4.0,96,0.00,,,0.08,WUHU21623XXSP,2013-12-03 13:57:00,
2013-12-03 08:02:00,36.3,35.2,29.66,NNE,22,0.0,4.0,96,0.00,,,0.08,WUHU21623XXSP,2013-12-03 14:02:00,
2013-12-03 08:07:00,36.3,35.2,29.65,ENE,67,0.0,3.8,96,0.00,,,0.08,WUHU21623XXSP,2013-12-03 14:07:00,
2013-12-03 08:12:00,36.3,35.2,29.66,NE,45,0.0,3.4,96,0.00,,,0.08,WUHU21623XXSP,2013-12-03 14:12:00,
2013-12-03 08:17:00,36.3,35.2,29.66,ENE,67,0.0,3.6,96,0.00,,,0.08,WUHU21623XXSP,2013-12-03 14:17:00,
2013-12-03 08:22:00,36.3,35.2,29.67,ESE,112,0.0,3.8,96,0.00,,,0.08,WUHU21623XXSP,2013-12-03 14:22:00,
2013-12-03 08:27:00,36.5,35.4,29.67,SE,135,0.0,3.8,96,0.00,,,0.08,WUHU21623XXSP,2013-12-03 14:27:00,
2013-12-03 08:32:00,36.3,35.5,29.68,ENE,67,2.0,2.9,97,0.00,,,0.08,WUHU21623XXSP,2013-12-03 14:32:00,
2013-12-03 08:37:00,36.5,35.6,29.68,NE,45,1.3,3.6,97,0.00,,,0.08,WUHU21623XXSP,2013-12-03 14:37:00,
2013-12-03 08:42:00,36.5,35.6,29.68,East,90,0.0,3.6,97,0.00,,,0.08,WUHU21623XXSP,2013-12-03 14:42:00,
2013-12-03 08:47:00,36.7,35.8,29.68,ENE,67,0.0,2.2,97,0.00,,,0.08,WUHU21623XXSP,2013-12-03 14:47:00,
2013-12-03 08:52:00,36.7,35.8,29.68,SE,135,0.0,3.4,97,0.00,,,0.08,WUHU21623XXSP,2013-12-03 14:52:00,
2013-12-03 08:57:00,36.7,35.8,29.67,ESE,112,0.0,4.3,97,0.00,,,0.08,WUHU21623XXSP,2013-12-03 14:57:00,
2013-12-03 09:02:00,36.7,35.8,29.67,ENE,67,0.0,4.3,97,0.00,,,0.08,WUHU21623XXSP,2013-12-03 15:02:00,
2013-12-03 09:07:00,36.7,35.8,29.67,ESE,112,2.9,2.9,97,0.00,,,0.08,WUHU21623XXSP,2013-12-03 15:07:00,
2013-12-03 09:12:00,36.7,35.8,29.66,ENE,67,2.5,3.6,97,0.00,,,0.08,WUHU21623XXSP,2013-12-03 15:12:00,
2013-12-03 09:17:00,37.0,36.1,29.66,ESE,112,1.6,3.6,97,0.00,,,0.08,WUHU21623XXSP,2013-12-03 15:17:00,
2013-12-03 09:22:00,37.0,36.1,29.66,SE,135,2.5,7.4,97,0.00,,,0.08,WUHU21623XXSP,2013-12-03 15:22:00,
2013-12-03 09:27:00,37.0,36.1,29.66,East,90,4.9,7.4,97,0.00,,,0.08,WUHU21623XXSP,2013-12-03 15:27:00,
2013-12-03 09:32:00,37.2,36.3,29.67,ENE,67,0.0,4.9,97,0.00,,,0.08,WUHU21623XXSP,2013-12-03 15:32:00,
2013-12-03 09:37:00,37.2,36.3,29.67,NNE,22,0.0,4.7,97,0.00,,,0.08,WUHU21623XXSP,2013-12-03 15:37:00,
2013-12-03 09:42:00,37.2,36.3,29.67,East,90,2.2,4.0,97,0.00,,,0.08,WUHU21623XXSP,2013-12-03 15:42:00,
2013-12-03 09:47:00,37.2,36.3,29.66,NE,45,1.8,4.0,97,0.00,,,0.08,WUHU21623XXSP,2013-12-03 15:47:00,
2013-12-03 09:52:00,37.6,36.7,29.67,NE,45,0.0,4.0,97,0.00,,,0.08,WUHU21623XXSP,2013-12-03 15:52:00,
2013-12-03 09:57:00,37.6,36.7,29.67,NE,45,2.2,8.5,97,0.00,,,0.08,WUHU21623XXSP,2013-12-03 15:57:00,
2013-12-03 10:02:00,37.6,36.7,29.67,ESE,112,2.9,8.5,97,0.00,,,0.08,WUHU21623XXSP,2013-12-03 16:02:00,
2013-12-03 10:07:00,37.6,36.7,29.68,ESE,112,2.7,3.8,97,0.00,,,0.08,WUHU21623XXSP,2013-12-03 16:07:00,
2013-12-03 10:12:00,37.6,36.7,29.68,NE,45,0.0,4.0,97,0.00,,,0.08,WUHU21623XXSP,2013-12-03 16:12:00,
2013-12-03 10:17:00,37.8,36.9,29.67,ENE,67,0.0,4.0,97,0.00,,,0.08,WUHU21623XXSP,2013-12-03 16:17:00,
2013-12-03 10:22:00,37.9,37.0,29.67,NE,45,1.3,4.0,97,0.00,,,0.08,WUHU21623XXSP,2013-12-03 16:22:00,
2013-12-03 10:27:00,37.9,37.0,29.67,ESE,112,0.0,7.6,97,0.00,,,0.08,WUHU21623XXSP,2013-12-03 16:27:00,
2013-12-03 10:32:00,37.9,37.0,29.68,East,90,0.0,7.6,97,0.00,,,0.08,WUHU21623XXSP,2013-12-03 16:32:00,
2013-12-03 10:37:00,37.9,37.0,29.68,West,270,0.0,4.0,97,0.00,,,0.08,WUHU21623XXSP,2013-12-03 16:37:00,
2013-12-03 10:42:00,37.9,37.0,29.68,ENE,67,2.9,3.1,97,0.00,,,0.08,WUHU21623XXSP,2013-12-03 16:42:00,
2013-12-03 10:47:00,37.9,37.0,29.68,ENE,67,0.0,3.4,97,0.00,,,0.08,WUHU21623XXSP,2013-12-03 16:47:00,
2013-12-03 10:52:00,37.9,37.0,29.68,ENE,67,0.0,3.4,97,0.00,,,0.08,WUHU21623XXSP,2013-12-03 16:52:00,
2013-12-03 10:57:00,38.1,37.2,29.68,NNE,22,1.1,2.7,97,0.00,,,0.08,WUHU21623XXSP,2013-12-03 16:57:00,
2013-12-03 11:02:00,38.1,37.2,29.68,ENE,67,1.8,3.8,97,0.00,,,0.08,WUHU21623XXSP,2013-12-03 17:02:00,
2013-12-03 11:07:00,38.1,37.2,29.68,NNE,22,3.8,3.8,97,0.00,,,0.08,WUHU21623XXSP,2013-12-03 17:07:00,
2013-12-03 11:12:00,38.1,37.2,29.68,NE,45,0.0,3.8,97,0.00,,,0.08,WUHU21623XXSP,2013-12-03 17:12:00,
2013-12-03 11:17:00,38.3,37.4,29.68,NE,45,0.0,3.6,97,0.00,,,0.08,WUHU21623XXSP,2013-12-03 17:17:00,
2013-12-03 11:22:00,38.3,37.4,29.69,SE,135,2.2,4.3,97,0.00,,,0.08,WUHU21623XXSP,2013-12-03 17:22:00,
2013-12-03 11:27:00,38.5,37.6,29.68,East,90,0.0,4.3,97,0.00,,,0.08,WUHU21623XXSP,2013-12-03 17:27:00,
2013-12-03 11:32:00,38.5,37.6,29.68,ESE,112,0.0,4.0,97,0.00,,,0.08,WUHU21623XXSP,2013-12-03 17:32:00,
2013-12-03 11:37:00,38.5,37.6,29.68,NE,45,0.0,4.0,97,0.00,,,0.08,WUHU21623XXSP,2013-12-03 17:37:00,
2013-12-03 11:42:00,38.5,37.6,29.68,North,0,0.0,2.7,97,0.00,,,0.08,WUHU21623XXSP,2013-12-03 17:42:00,
2013-12-03 11:47:00,38.5,37.6,29.68,NE,45,0.0,4.5,97,0.00,,,0.08,WUHU21623XXSP,2013-12-03 17:47:00,
2013-12-03 11:52:00,38.8,37.9,29.67,ENE,67,1.3,4.5,97,0.00,,,0.08,WUHU21623XXSP,2013-12-03 17:52:00,
2013-12-03 11:57:00,38.8,37.9,29.68,East,90,0.0,2.0,97,0.00,,,0.08,WUHU21623XXSP,2013-12-03 17:57:00,
2013-12-03 12:02:00,38.8,37.9,29.68,NE,45,0.0,1.3,97,0.00,,,0.08,WUHU21623XXSP,2013-12-03 18:02:00,
2013-12-03 12:07:00,38.5,37.6,29.67,East,90,2.5,3.1,97,0.00,,,0.08,WUHU21623XXSP,2013-12-03 18:07:00,
2013-12-03 12:12:00,38.5,37.6,29.67,ENE,67,0.0,3.1,97,0.00,,,0.08,WUHU21623XXSP,2013-12-03 18:12:00,
2013-12-03 12:17:00,38.5,37.6,29.67,ENE,67,0.0,3.8,97,0.00,,,0.08,WUHU21623XXSP,2013-12-03 18:17:00,
2013-12-03 12:22:00,38.3,37.4,29.67,East,90,1.1,3.8,97,0.00,,,0.08,WUHU21623XXSP,2013-12-03 18:22:00,
2013-12-03 12:27:00,38.3,37.4,29.67,NE,45,0.0,3.1,97,0.00,,,0.08,WUHU21623XXSP,2013-12-03 18:27:00,
2013-12-03 12:32:00,38.3,37.4,29.65,NE,45,2.7,2.7,97,0.00,,,0.08,WUHU21623XXSP,2013-12-03 18:32:00,
2013-12-03 12:37:00,38.3,37.4,29.65,ESE,112,3.8,3.8,97,0.02,,,0.10,WUHU21623XXSP,2013-12-03 18:37:00,
2013-12-03 12:42:00,38.1,37.2,29.65,SSW,202,1.3,4.5,97,0.02,,,0.10,WUHU21623XXSP,2013-12-03 18:42:00,
2013-12-03 12:47:00,38.1,37.2,29.65,East,90,0.0,4.5,97,0.02,,,0.10,WUHU21623XXSP,2013-12-03 18:47:00,
2013-12-03 12:52:00,38.1,37.2,29.64,ENE,67,0.9,6.0,97,0.02,,,0.10,WUHU21623XXSP,2013-12-03 18:52:00,
2013-12-03 12:57:00,38.1,37.2,29.64,East,90,2.0,6.0,97,0.04,,,0.12,WUHU21623XXSP,2013-12-03 18:57:00,
2013-12-03 13:02:00,38.1,37.2,29.64,ESE,112,2.2,4.3,97,0.04,,,0.12,WUHU21623XXSP,2013-12-03 19:02:00,
2013-12-03 13:07:00,38.1,37.2,29.64,ENE,67,3.6,6.7,97,0.04,,,0.12,WUHU21623XXSP,2013-12-03 19:07:00,
2013-12-03 13:12:00,38.3,37.4,29.64,ENE,67,0.0,6.7,97,0.04,,,0.12,WUHU21623XXSP,2013-12-03 19:12:00,
2013-12-03 13:17:00,38.1,37.2,29.65,SE,135,1.6,7.8,97,0.04,,,0.12,WUHU21623XXSP,2013-12-03 19:17:00,
2013-12-03 13:22:00,38.1,37.5,29.65,NE,45,0.0,7.8,98,0.06,,,0.15,WUHU21623XXSP,2013-12-03 19:22:00,
2013-12-03 13:27:00,38.3,37.4,29.64,East,90,2.2,6.3,97,0.06,,,0.15,WUHU21623XXSP,2013-12-03 19:27:00,
2013-12-03 13:32:00,38.3,37.4,29.65,SE,135,2.2,5.1,97,0.04,,,0.15,WUHU21623XXSP,2013-12-03 19:32:00,
2013-12-03 13:37:00,38.3,37.7,29.65,NNE,22,0.9,4.0,98,0.04,,,0.15,WUHU21623XXSP,2013-12-03 19:37:00,
2013-12-03 13:42:00,38.3,37.7,29.65,ESE,112,3.8,6.3,98,0.04,,,0.15,WUHU21623XXSP,2013-12-03 19:42:00,
2013-12-03 13:47:00,38.5,37.9,29.65,East,90,0.9,6.3,98,0.04,,,0.15,WUHU21623XXSP,2013-12-03 19:47:00,
2013-12-03 13:52:00,38.5,37.6,29.65,East,90,2.0,5.1,97,0.02,,,0.15,WUHU21623XXSP,2013-12-03 19:52:00,
2013-12-03 13:57:00,38.5,37.6,29.65,East,90,2.2,6.0,97,0.04,,,0.17,WUHU21623XXSP,2013-12-03 19:57:00,
2013-12-03 14:02:00,38.7,38.1,29.64,SE,135,0.0,6.9,98,0.04,,,0.17,WUHU21623XXSP,2013-12-03 20:02:00,
2013-12-03 14:07:00,38.8,37.9,29.64,ENE,67,1.3,6.9,97,0.04,,,0.17,WUHU21623XXSP,2013-12-03 20:07:00,
2013-12-03 14:12:00,38.8,37.9,29.64,WNW,292,0.7,6.3,97,0.04,,,0.17,WUHU21623XXSP,2013-12-03 20:12:00,
2013-12-03 14:17:00,38.7,37.8,29.65,East,90,0.0,6.3,97,0.04,,,0.17,WUHU21623XXSP,2013-12-03 20:17:00,
2013-12-03 14:22:00,38.5,37.6,29.65,NNE,22,4.0,6.0,97,0.02,,,0.17,WUHU21623XXSP,2013-12-03 20:22:00,
2013-12-03 14:27:00,38.5,37.6,29.64,ESE,112,4.5,4.9,97,0.02,,,0.17,WUHU21623XXSP,2013-12-03 20:27:00,
2013-12-03 14:32:00,38.5,37.9,29.64,NE,45,2.2,7.4,98,0.02,,,0.17,WUHU21623XXSP,2013-12-03 20:32:00,
2013-12-03 14:37:00,38.3,37.7,29.64,NE,45,0.0,7.4,98,0.02,,,0.17,WUHU21623XXSP,2013-12-03 20:37:00,
2013-12-03 14:42:00,38.3,37.7,29.64,East,90,2.0,5.8,98,0.02,,,0.17,WUHU21623XXSP,2013-12-03 20:42:00,
2013-12-03 14:47:00,38.3,37.7,29.64,ESE,112,2.7,7.6,98,0.02,,,0.17,WUHU21623XXSP,2013-12-03 20:47:00,
2013-12-03 14:52:00,38.3,37.7,29.64,ENE,67,3.1,7.6,98,0.00,,,0.17,WUHU21623XXSP,2013-12-03 20:52:00,
2013-12-03 14:57:00,38.1,37.5,29.64,ENE,67,3.4,5.8,98,0.00,,,0.17,WUHU21623XXSP,2013-12-03 20:57:00,
2013-12-03 15:02:00,38.1,37.5,29.64,North,0,0.0,6.3,98,0.00,,,0.17,WUHU21623XXSP,2013-12-03 21:02:00,
2013-12-03 15:07:00,38.1,37.5,29.64,SE,135,6.0,7.6,98,0.00,,,0.17,WUHU21623XXSP,2013-12-03 21:07:00,
2013-12-03 15:12:00,37.9,37.3,29.64,ENE,67,2.2,7.6,98,0.00,,,0.17,WUHU21623XXSP,2013-12-03 21:12:00,
2013-12-03 15:17:00,38.1,37.5,29.64,NE,45,0.0,6.0,98,0.00,,,0.17,WUHU21623XXSP,2013-12-03 21:17:00,
2013-12-03 15:22:00,38.1,37.5,29.64,ENE,67,1.6,9.6,98,0.00,,,0.17,WUHU21623XXSP,2013-12-03 21:22:00,
2013-12-03 15:27:00,37.9,37.3,29.63,East,90,3.8,9.6,98,0.00,,,0.17,WUHU21623XXSP,2013-12-03 21:27:00,
2013-12-03 15:32:00,37.9,37.3,29.63,ENE,67,1.1,6.9,98,0.00,,,0.17,WUHU21623XXSP,2013-12-03 21:32:00,
2013-12-03 15:37:00,37.9,37.3,29.63,East,90,2.7,8.9,98,0.00,,,0.17,WUHU21623XXSP,2013-12-03 21:37:00,
2013-12-03 15:42:00,37.9,37.3,29.63,ENE,67,0.0,8.9,98,0.00,,,0.17,WUHU21623XXSP,2013-12-03 21:42:00,
2013-12-03 15:47:00,37.9,37.3,29.63,ENE,67,0.0,6.5,98,0.00,,,0.17,WUHU21623XXSP,2013-12-03 21:47:00,
2013-12-03 15:52:00,37.9,37.3,29.63,NE,45,0.0,6.5,98,0.02,,,0.19,WUHU21623XXSP,2013-12-03 21:52:00,
2013-12-03 15:57:00,37.9,37.3,29.64,East,90,0.0,6.0,98,0.02,,,0.19,WUHU21623XXSP,2013-12-03 21:57:00,
2013-12-03 16:02:00,37.9,37.3,29.64,East,90,3.1,6.9,98,0.02,,,0.19,WUHU21623XXSP,2013-12-03 22:02:00,
2013-12-03 16:07:00,37.9,37.3,29.65,SE,135,3.4,6.9,98,0.02,,,0.19,WUHU21623XXSP,2013-12-03 22:07:00,
2013-12-03 16:12:00,37.9,37.3,29.65,ENE,67,0.0,5.1,98,0.02,,,0.19,WUHU21623XXSP,2013-12-03 22:12:00,
2013-12-03 16:17:00,37.9,37.3,29.65,SSE,157,3.6,5.1,98,0.02,,,0.19,WUHU21623XXSP,2013-12-03 22:17:00,
2013-12-03 16:22:00,37.9,37.3,29.65,East,90,2.0,3.6,98,0.02,,,0.19,WUHU21623XXSP,2013-12-03 22:22:00,
2013-12-03 16:27:00,37.9,37.3,29.65,NE,45,1.3,4.0,98,0.02,,,0.19,WUHU21623XXSP,2013-12-03 22:27:00,
2013-12-03 16:32:00,37.9,37.3,29.65,East,90,0.0,4.0,98,0.02,,,0.19,WUHU21623XXSP,2013-12-03 22:32:00,
2013-12-03 16:37:00,37.8,37.2,29.65,NE,45,2.2,4.9,98,0.02,,,0.19,WUHU21623XXSP,2013-12-03 22:37:00,
2013-12-03 16:42:00,37.6,37.0,29.65,ENE,67,2.0,4.9,98,0.02,,,0.19,WUHU21623XXSP,2013-12-03 22:42:00,
2013-12-03 16:47:00,37.6,37.0,29.65,NE,45,2.5,4.7,98,0.00,,,0.19,WUHU21623XXSP,2013-12-03 22:47:00,
2013-12-03 16:52:00,37.4,36.8,29.65,ENE,67,2.7,5.1,98,0.00,,,0.19,WUHU21623XXSP,2013-12-03 22:52:00,
2013-12-03 16:57:00,37.2,36.6,29.63,ENE,67,0.0,5.1,98,0.00,,,0.19,WUHU21623XXSP,2013-12-03 22:57:00,
2013-12-03 17:02:00,37.2,36.3,29.64,ENE,67,2.0,5.8,97,0.00,,,0.19,WUHU21623XXSP,2013-12-03 23:02:00,
2013-12-03 17:07:00,37.2,36.3,29.64,East,90,3.4,5.8,97,0.00,,,0.19,WUHU21623XXSP,2013-12-03 23:07:00,
2013-12-03 17:12:00,37.2,36.3,29.64,ENE,67,5.4,5.4,97,0.00,,,0.19,WUHU21623XXSP,2013-12-03 23:12:00,
2013-12-03 17:17:00,37.2,36.3,29.64,ESE,112,0.0,5.4,97,0.00,,,0.19,WUHU21623XXSP,2013-12-03 23:17:00,
2013-12-03 17:22:00,37.2,36.3,29.65,NNW,337,0.0,5.4,97,0.00,,,0.19,WUHU21623XXSP,2013-12-03 23:22:00,
2013-12-03 17:27:00,37.2,36.3,29.65,SSE,157,2.7,4.9,97,0.00,,,0.19,WUHU21623XXSP,2013-12-03 23:27:00,
2013-12-03 17:32:00,37.2,36.3,29.65,ENE,67,0.0,4.9,97,0.00,,,0.19,WUHU21623XXSP,2013-12-03 23:32:00,
2013-12-03 17:37:00,37.2,36.3,29.65,NE,45,0.0,3.6,97,0.00,,,0.19,WUHU21623XXSP,2013-12-03 23:37:00,
2013-12-03 17:42:00,37.0,36.1,29.65,NE,45,1.3,3.1,97,0.00,,,0.19,WUHU21623XXSP,2013-12-03 23:42:00,
2013-12-03 17:47:00,37.0,36.1,29.65,NE,45,1.1,4.9,97,0.00,,,0.19,WUHU21623XXSP,2013-12-03 23:47:00,
2013-12-03 17:52:00,37.0,36.1,29.66,East,90,1.1,6.0,97,0.00,,,0.19,WUHU21623XXSP,2013-12-03 23:52:00,
2013-12-03 17:57:00,37.0,36.1,29.65,NE,45,3.6,6.0,97,0.00,,,0.19,WUHU21623XXSP,2013-12-03 23:57:00,
2013-12-03 18:02:00,37.0,36.1,29.66,SE,135,1.8,4.5,97,0.00,,,0.19,WUHU21623XXSP,2013-12-04 00:02:00,
2013-12-03 18:07:00,37.0,36.1,29.66,East,90,0.0,4.5,97,0.00,,,0.19,WUHU21623XXSP,2013-12-04 00:07:00,
2013-12-03 18:12:00,37.0,36.1,29.67,East,90,0.0,4.0,97,0.00,,,0.19,WUHU21623XXSP,2013-12-04 00:12:00,
2013-12-03 18:17:00,37.0,36.1,29.67,ENE,67,0.0,7.2,97,0.00,,,0.19,WUHU21623XXSP,2013-12-04 00:17:00,
2013-12-03 18:22:00,37.0,36.1,29.67,NE,45,0.0,7.2,97,0.00,,,0.19,WUHU21623XXSP,2013-12-04 00:22:00,
2013-12-03 18:27:00,36.9,36.0,29.67,NE,45,0.0,3.1,97,0.00,,,0.19,WUHU21623XXSP,2013-12-04 00:27:00,
2013-12-03 18:32:00,36.9,36.0,29.67,ESE,112,0.0,3.8,97,0.00,,,0.19,WUHU21623XXSP,2013-12-04 00:32:00,
2013-12-03 18:37:00,36.9,36.0,29.67,East,90,1.8,4.7,97,0.00,,,0.19,WUHU21623XXSP,2013-12-04 00:37:00,
2013-12-03 18:42:00,36.7,35.8,29.67,East,90,1.1,4.7,97,0.00,,,0.19,WUHU21623XXSP,2013-12-04 00:42:00,
2013-12-03 18:47:00,36.9,36.0,29.68,NE,45,0.0,4.0,97,0.00,,,0.19,WUHU21623XXSP,2013-12-04 00:47:00,
2013-12-03 18:52:00,36.9,36.3,29.68,NNE,22,0.0,3.4,98,0.00,,,0.19,WUHU21623XXSP,2013-12-04 00:52:00,
2013-12-03 18:57:00,36.7,36.1,29.68,ENE,67,0.0,4.7,98,0.00,,,0.19,WUHU21623XXSP,2013-12-04 00:57:00,
2013-12-03 19:02:00,36.7,36.1,29.68,NE,45,1.3,4.7,98,0.00,,,0.19,WUHU21623XXSP,2013-12-04 01:02:00,
2013-12-03 19:07:00,36.7,36.1,29.69,ENE,67,0.0,4.7,98,0.00,,,0.19,WUHU21623XXSP,2013-12-04 01:07:00,
2013-12-03 19:12:00,36.7,36.1,29.69,NE,45,0.0,4.0,98,0.00,,,0.19,WUHU21623XXSP,2013-12-04 01:12:00,
2013-12-03 19:17:00,36.7,36.1,29.69,ENE,67,2.5,4.0,98,0.00,,,0.19,WUHU21623XXSP,2013-12-04 01:17:00,
2013-12-03 19:22:00,36.7,36.1,29.70,NNE,22,0.0,2.5,98,0.00,,,0.19,WUHU21623XXSP,2013-12-04 01:22:00,
2013-12-03 19:27:00,36.7,36.1,29.70,ENE,67,0.0,2.5,98,0.02,,,0.21,WUHU21623XXSP,2013-12-04 01:27:00,
2013-12-03 19:32:00,36.7,36.1,29.70,East,90,0.0,2.9,98,0.02,,,0.21,WUHU21623XXSP,2013-12-04 01:32:00,
2013-12-03 19:37:00,36.7,36.1,29.70,NE,45,0.0,4.0,98,0.04,,,0.23,WUHU21623XXSP,2013-12-04 01:37:00,
2013-12-03 19:42:00,36.7,36.1,29.70,ESE,112,0.0,4.0,98,0.04,,,0.23,WUHU21623XXSP,2013-12-04 01:42:00,
2013-12-03 19:47:00,36.7,36.1,29.69,NNE,22,1.3,3.6,98,0.04,,,0.23,WUHU21623XXSP,2013-12-04 01:47:00,
2013-12-03 19:52:00,36.5,35.9,29.68,East,90,0.0,3.1,98,0.04,,,0.23,WUHU21623XXSP,2013-12-04 01:52:00,
2013-12-03 19:57:00,36.5,35.9,29.68,East,90,2.5,3.1,98,0.04,,,0.23,WUHU21623XXSP,2013-12-04 01:57:00,
2013-12-03 20:02:00,36.5,35.9,29.68,ESE,112,0.0,3.1,98,0.04,,,0.23,WUHU21623XXSP,2013-12-04 02:02:00,
2013-12-03 20:07:00,36.5,35.9,29.68,ENE,67,2.9,5.6,98,0.04,,,0.23,WUHU21623XXSP,2013-12-04 02:07:00,
2013-12-03 20:12:00,36.5,35.9,29.68,East,90,0.0,5.6,98,0.04,,,0.23,WUHU21623XXSP,2013-12-04 02:12:00,
2013-12-03 20:17:00,36.5,35.9,29.68,East,90,0.0,2.0,98,0.04,,,0.23,WUHU21623XXSP,2013-12-04 02:17:00,
2013-12-03 20:22:00,36.5,35.9,29.68,East,90,0.0,3.1,98,0.02,,,0.23,WUHU21623XXSP,2013-12-04 02:22:00,
2013-12-03 20:27:00,36.5,35.9,29.67,ENE,67,0.9,4.0,98,0.02,,,0.23,WUHU21623XXSP,2013-12-04 02:27:00,
2013-12-03 20:32:00,36.5,35.9,29.68,NE,45,0.7,4.0,98,0.00,,,0.23,WUHU21623XXSP,2013-12-04 02:32:00,
2013-12-03 20:37:00,36.7,36.1,29.68,NNE,22,0.0,4.7,98,0.00,,,0.23,WUHU21623XXSP,2013-12-04 02:37:00,
2013-12-03 20:42:00,36.5,35.9,29.68,NNE,22,0.0,4.7,98,0.00,,,0.23,WUHU21623XXSP,2013-12-04 02:42:00,
2013-12-03 20:47:00,36.5,35.9,29.68,NE,45,1.3,3.6,98,0.00,,,0.23,WUHU21623XXSP,2013-12-04 02:47:00,
2013-12-03 20:52:00,36.5,35.9,29.68,NE,45,0.0,3.6,98,0.00,,,0.23,WUHU21623XXSP,2013-12-04 02:52:00,
2013-12-03 20:57:00,36.5,35.9,29.69,North,0,1.1,5.6,98,0.00,,,0.23,WUHU21623XXSP,2013-12-04 02:57:00,
2013-12-03 21:02:00,36.5,35.9,29.69,NE,45,0.0,5.6,98,0.00,,,0.23,WUHU21623XXSP,2013-12-04 03:02:00,
2013-12-03 21:07:00,36.5,35.9,29.69,South,180,0.0,3.4,98,0.00,,,0.23,WUHU21623XXSP,2013-12-04 03:07:00,
2013-12-03 21:12:00,36.3,35.7,29.69,ESE,112,4.5,4.5,98,0.00,,,0.23,WUHU21623XXSP,2013-12-04 03:12:00,
2013-12-03 21:17:00,36.3,35.7,29.69,ENE,67,0.0,4.5,98,0.00,,,0.23,WUHU21623XXSP,2013-12-04 03:17:00,
2013-12-03 21:22:00,36.3,35.7,29.69,ENE,67,0.0,4.5,98,0.00,,,0.23,WUHU21623XXSP,2013-12-04 03:22:00,
2013-12-03 21:27:00,36.3,35.7,29.69,ENE,67,0.9,2.9,98,0.00,,,0.23,WUHU21623XXSP,2013-12-04 03:27:00,
2013-12-03 21:32:00,36.3,35.7,29.69,NE,45,0.0,2.2,98,0.00,,,0.23,WUHU21623XXSP,2013-12-04 03:32:00,
2013-12-03 21:37:00,36.5,35.9,29.69,ENE,67,0.0,3.4,98,0.00,,,0.23,WUHU21623XXSP,2013-12-04 03:37:00,
2013-12-03 21:42:00,36.3,35.7,29.69,ENE,67,0.0,3.4,98,0.00,,,0.23,WUHU21623XXSP,2013-12-04 03:42:00,
2013-12-03 21:47:00,36.3,35.7,29.69,NE,45,0.0,1.8,98,0.02,,,0.25,WUHU21623XXSP,2013-12-04 03:47:00,
2013-12-03 21:52:00,36.5,35.9,29.69,North,0,0.0,1.8,98,0.02,,,0.25,WUHU21623XXSP,2013-12-04 03:52:00,
2013-12-03 21:57:00,36.3,35.7,29.68,NE,45,0.0,1.8,98,0.02,,,0.25,WUHU21623XXSP,2013-12-04 03:57:00,
2013-12-03 22:02:00,36.3,35.7,29.68,ESE,112,1.1,6.3,98,0.02,,,0.25,WUHU21623XXSP,2013-12-04 04:02:00,
2013-12-03 22:07:00,36.3,35.7,29.68,ENE,67,0.0,6.3,98,0.02,,,0.25,WUHU21623XXSP,2013-12-04 04:07:00,
2013-12-03 22:12:00,36.5,35.9,29.68,SSE,157,1.6,3.1,98,0.02,,,0.25,WUHU21623XXSP,2013-12-04 04:12:00,
2013-12-03 22:17:00,36.3,35.7,29.68,SE,135,0.0,3.1,98,0.02,,,0.25,WUHU21623XXSP,2013-12-04 04:17:00,
2013-12-03 22:22:00,36.5,35.9,29.68,East,90,0.0,4.5,98,0.02,,,0.25,WUHU21623XXSP,2013-12-04 04:22:00,
2013-12-03 22:27:00,36.3,35.7,29.67,NNE,22,1.6,4.5,98,0.02,,,0.25,WUHU21623XXSP,2013-12-04 04:27:00,
2013-12-03 22:32:00,36.3,35.7,29.68,East,90,2.0,2.7,98,0.02,,,0.25,WUHU21623XXSP,2013-12-04 04:32:00,
2013-12-03 22:37:00,36.3,35.7,29.68,ESE,112,0.0,5.4,98,0.02,,,0.25,WUHU21623XXSP,2013-12-04 04:37:00,
2013-12-03 22:42:00,36.3,35.7,29.68,ENE,67,0.0,5.4,98,0.02,,,0.25,WUHU21623XXSP,2013-12-04 04:42:00,
2013-12-03 22:47:00,36.3,35.7,29.68,East,90,0.0,4.0,98,0.00,,,0.25,WUHU21623XXSP,2013-12-04 04:47:00,
2013-12-03 22:52:00,36.5,35.9,29.68,East,90,0.0,2.7,98,0.00,,,0.25,WUHU21623XXSP,2013-12-04 04:52:00,
2013-12-03 22:57:00,36.3,35.7,29.68,NE,45,0.0,2.5,98,0.00,,,0.25,WUHU21623XXSP,2013-12-04 04:57:00,
2013-12-03 23:01:00,36.3,35.7,29.68,ENE,67,0.0,2.5,98,0.00,,,0.25,WUHU21623XXSP,2013-12-04 05:01:00,
2013-12-03 23:06:00,36.3,35.7,29.67,NE,45,0.0,5.4,98,0.00,,,0.25,WUHU21623XXSP,2013-12-04 05:06:00,
2013-12-03 23:11:00,36.3,35.7,29.66,NE,45,0.0,2.7,98,0.00,,,0.25,WUHU21623XXSP,2013-12-04 05:11:00,
2013-12-03 23:16:00,36.3,35.7,29.67,ESE,112,0.0,4.7,98,0.00,,,0.25,WUHU21623XXSP,2013-12-04 05:16:00,
2013-12-03 23:21:00,36.3,35.7,29.67,NE,45,0.0,4.7,98,0.00,,,0.25,WUHU21623XXSP,2013-12-04 05:21:00,
2013-12-03 23:26:00,36.3,35.7,29.68,ESE,112,1.3,2.5,98,0.00,,,0.25,WUHU21623XXSP,2013-12-04 05:26:00,
2013-12-03 23:31:00,36.3,35.7,29.69,NE,45,0.0,4.0,98,0.00,,,0.25,WUHU21623XXSP,2013-12-04 05:31:00,
2013-12-03 23:36:00,36.3,35.7,29.69,NNE,22,0.0,4.0,98,0.00,,,0.25,WUHU21623XXSP,2013-12-04 05:36:00,
2013-12-03 23:41:00,36.3,35.7,29.69,NE,45,0.0,2.0,98,0.00,,,0.25,WUHU21623XXSP,2013-12-04 05:41:00,
2013-12-03 23:46:00,36.3,35.7,29.68,NE,45,2.5,2.5,98,0.00,,,0.25,WUHU21623XXSP,2013-12-04 05:46:00,
2013-12-03 23:51:00,36.3,35.7,29.68,ENE,67,3.6,3.6,98,0.00,,,0.25,WUHU21623XXSP,2013-12-04 05:51:00,
2013-12-03 23:56:00,36.3,35.7,29.69,ESE,112,0.0,3.8,98,0.00,,,0.25,WUHU21623XXSP,2013-12-04 05:56:00,